カタログに戻る

ATLAS 5 CENTAUR DEB

運用中HEO
NORAD 44679·DEBRIS·🇺🇸 United States

打ち上げ Oct 17, 2018 から Cape Canaveral Space Force Station

Loading…

次のパス (今後24時間)

TLE

最新Source: Space-Track

元期: Sep 14, 2026, 06:43 UTC

1 44679U 18079AR  26257.27994320 -.00000165  00000-0  00000-0 0  9996
2 44679  13.5327  31.6520 4692652 318.6957  13.9414  1.79398557 48270

AllMySatでATLAS 5 CENTAUR DEBをリアルタイム追跡

Download on the App Store